THORAD AGENA D DEB, 42554

Orbit data source: Space-Track

THORAD AGENA D DEB, 42554 is space debris in SSO originally from a launch on Wed, 08 Apr 1970 UTC launched from the Air Force Western Test Range (AFWTR). Debris objects in space refer to the collection of defunct objects orbiting the Earth. Examples of debris include non-operational satellites, rocket bodies, and fragments generated from explosions, collisions, or faulty payload assembly.

Loading next visibility...
Identifier
42554, 1970-025TL
Orbit
SSO
Country
Flag of USUS
Related business
Manufacturer
Unknown
Mission
Spacecraft
Bus & Motor
Unknown
Mass
Unknown
Launch date (UTC)
1970-04-08 (56 years ago)
Launch vehicle
Unknown
Launch site
Air Force Western Test Range (AFWTR)
Object type
Payload
Rocket body
Debris
Shape & HBR
Unknown shape, 0.1 m
Radar Cross Section
Small (<0.1 m²)

Expand to show TLE details & history
Last TLE update: 5 days ago

TLE from 5 days ago
0 THORAD AGENA D DEB
1 42554U 70025TL  26032.71889448  .00001308  00000-0  12865-2 0  9992
2 42554 100.0464 191.5835 0037825  42.0206 318.3835 13.80613084567214
Epoch: 2026-02-01T17:15Z
TLE epoch observation values (Epoch: 2026-02-01T17:15:12.483Z)
Latitude
Longitude
160.85698°
Altitude
943.815 km
Speed
7.39 km/s
True Right ascension
12h 46m 20s
True Declination
0° 00' 00"
Sunlit
Object was in full shadow at epoch
Visualization orbit readout
Latitude
Unknown
Longitude
Unknown
Altitude
Unknown
Speed
Unknown
Apparent Right ascension
Unknown
Apparent Declination
Unknown
Sunlit
N/A
Visualization observer readout
Local Sidereal Time
15:52:39
Azimuth
Unknown
Elevation
Unknown
Doppler factor
Unknown
Orbital elements
Apogee altitude
986.745 km
Perigee altitude
931.239 km
Semi-major axis
7,337.129 km
Eccentricity
0.00378
Inclination
100.0464°
RAAN
191.5835°
Arg. of periapsis
42.0206°
True anomaly
318.09461°
Mean anomaly
318.3835°
Eccentric anomaly
318.23916°
Mean motion
3.45346 °/min
Orbital period
104.24 mins
BSTAR
0.0012865

Documentation

Showing up to 5 results
|